KC8JWT Weather Reports


time (UTC)temp
C
wind
direction
speed
KPH
gust
KPH
rain 1hr
cm
rain 24hr
cm
rain mn
cm
humidity
%
barometer
mb
20260505093000 16 152 3.2 3.2 0.00 0.03 0.03 81 1009.2
20260505092458 17 147 1.6 3.2 0.13 0.03 0.03 80 1009.1
20260505091955 17 170 4.8 4.8 0.13 0.03 0.03 79 1009.1
20260505091453 17 198 3.2 4.8 0.00 0.00 0.00 75 1009.1
20260505090951 17 157 6.4 8.0 0.00 0.00 0.00 74 1009.0
20260505090449 17 194 3.2 3.2 0.00 0.00 0.00 75 1009.1
20260505085945 18 160 6.4 8.0 0.00 0.00 0.00 74 1009.1
20260505085443 18 189 4.8 4.8 0.00 0.00 0.00 73 1008.8
20260505084942 18 185 4.8 4.8 0.00 0.00 0.00 70 1008.7
20260505084440 18 244 6.4 8.0 0.00 0.00 0.00 69 1008.6
20260505083937 18 208 6.4 8.0 0.00 0.00 0.00 69 1008.6
20260505083434 18 148 3.2 4.8 0.00 0.00 0.00 69 1008.6
20260505082930 18 213 4.8 8.0 0.00 0.00 0.00 68 1008.5
20260505082426 18 152 3.2 4.8 0.00 0.00 0.00 69 1008.7
20260505081923 18 168 4.8 4.8 0.00 0.00 0.00 69 1008.6
20260505081420 18 132 6.4 9.7 0.00 0.00 0.00 68 1008.6
20260505080917 18 195 4.8 4.8 0.00 0.00 0.00 68 1008.3
20260505080413 18 150 3.2 3.2 0.00 0.00 0.00 68 1008.4
20260505075908 18 181 3.2 8.0 0.00 0.00 0.00 68 1008.5
20260505075405 18 239 9.7 11.3 0.00 0.00 0.00 68 1008.5
20260505074903 18 207 6.4 8.0 0.00 0.00 0.00 68 1008.3
20260505074400 18 187 6.4 9.7 0.00 0.00 0.00 67 1008.0
20260505073857 18 170 6.4 9.7 0.00 0.00 0.00 67 1008.2
20260505073355 18 216 11.3 12.9 0.00 0.00 0.00 67 1008.2
20260505072852 18 140 4.8 8.0 0.00 0.00 0.00 67 1008.2
20260505072348 18 173 6.4 9.7 0.00 0.00 0.00 67 1007.9
20260505071844 18 150 3.2 3.2 0.00 0.00 0.00 67 1008.2
20260505071340 18 155 4.8 4.8 0.00 0.00 0.00 67 1008.0
20260505070839 18 184 3.2 3.2 0.00 0.00 0.00 67 1008.3
20260505070335 18 189 11.3 14.5 0.00 0.00 0.00 67 1008.2
20260505065830 19 158 6.4 9.7 0.00 0.00 0.00 66 1008.1
20260505065327 19 143 6.4 8.0 0.00 0.00 0.00 66 1008.3
20260505064824 19 190 6.4 9.7 0.00 0.00 0.00 66 1008.1
20260505064321 18 172 6.4 8.0 0.00 0.00 0.00 67 1008.3
20260505063820 18 221 3.2 3.2 0.00 0.00 0.00 67 1008.2
20260505063315 18 200 3.2 8.0 0.00 0.00 0.00 66 1008.6
20260505062812 18 139 11.3 14.5 0.00 0.00 0.00 66 1008.7
20260505062309 18 126 3.2 3.2 0.00 0.00 0.00 66 1008.5
20260505061806 18 171 4.8 4.8 0.00 0.00 0.00 66 1008.4
20260505061304 18 146 3.2 3.2 0.00 0.00 0.00 66 1008.2
20260505060801 18 201 9.7 12.9 0.00 0.00 0.00 66 1008.6
20260505060258 18 185 1.6 3.2 0.00 0.00 0.00 66 1008.6
20260505055754 19 145 1.6 3.2 0.00 0.00 0.00 66 1008.5
20260505055250 18 140 4.8 4.8 0.00 0.00 0.00 67 1008.5
20260505054747 18 206 6.4 8.0 0.00 0.00 0.00 67 1008.6
20260505054245 18 224 6.4 8.0 0.00 0.00 0.00 67 1008.5
20260505053743 18 229 9.7 14.5 0.00 0.00 0.00 68 1008.5
20260505053239 18 149 3.2 3.2 0.00 0.00 0.00 69 1008.7
20260505052737 18 197 3.2 3.2 0.00 0.00 0.00 69 1008.7
20260505052233 18 150 1.6 1.6 0.00 0.00 0.00 70 1008.5
20260505051730 18 160 4.8 4.8 0.00 0.00 0.00 70 1008.8
20260505051229 18 170 1.6 3.2 0.00 0.00 0.00 70 1008.7
20260505050726 18 156 0.0 1.6 0.00 0.00 0.00 70 1008.6
20260505050224 18 154 1.6 1.6 0.00 0.00 0.00 70 1008.6
20260505041654 17 171 0.0 1.6 0.00 0.00 0.00 75 1008.4
20260505041151 16 151 1.6 3.2 0.00 0.00 0.00 78 1008.4
20260505040648 16 149 0.0 1.6 0.00 0.00 0.00 82 1008.5
20260505040146 15 150 0.0 0.0 0.00 0.00 0.00 83 1008.2
20260505035642 15 139 1.6 1.6 0.00 0.00 0.00 84 1008.2
20260505035138 15 140 0.0 0.0 0.00 0.00 0.00 85 1008.0
20260505034635 15 140 0.0 0.0 0.00 0.00 0.00 85 1008.2
20260505034132 15 140 0.0 0.0 0.00 0.00 0.00 84 1008.2
20260505033628 15 140 0.0 0.0 0.00 0.00 0.00 84 1008.1
20260505033127 15 140 0.0 0.0 0.00 0.00 0.00 85 1008.2
20260505032625 15 140 0.0 0.0 0.00 0.00 0.00 84 1008.1
20260505032121 15 140 0.0 0.0 0.00 0.00 0.00 84 1008.1
20260505031618 15 140 0.0 0.0 0.00 0.00 0.00 84 1008.2
20260505031114 15 140 0.0 0.0 0.00 0.00 0.00 83 1008.1
20260505030611 15 140 0.0 0.0 0.00 0.00 0.00 83 1008.1
20260505030108 15 140 1.6 1.6 0.00 0.00 0.00 83 1008.0
20260505025603 15 140 0.0 0.0 0.00 0.00 0.00 83 1008.1
20260505025102 15 140 0.0 0.0 0.00 0.00 0.00 82 1008.3
20260505024559 16 140 0.0 0.0 0.00 0.00 0.00 81 1008.1
20260505024056 16 140 0.0 0.0 0.00 0.00 0.00 79 1008.2
20260505023553 16 140 0.0 0.0 0.00 0.00 0.00 78 1007.9
20260505023051 17 141 0.0 0.0 0.00 0.00 0.00 76 1008.0
20260505022548 17 141 0.0 0.0 0.00 0.00 0.00 76 1008.1
20260505022040 17 140 0.0 0.0 0.00 0.00 0.00 76 1007.9
20260505021536 17 140 0.0 0.0 0.00 0.00 0.00 76 1008.2
20260505021033 17 140 0.0 0.0 0.00 0.00 0.00 75 1007.7
20260505020532 17 140 0.0 0.0 0.00 0.00 0.00 75 1007.9
20260505020030 17 135 0.0 0.0 0.00 0.00 0.00 75 1007.9
20260505015527 17 135 0.0 0.0 0.00 0.00 0.00 75 1008.2
20260505015023 17 135 0.0 0.0 0.00 0.00 0.00 76 1008.0
20260505014520 17 134 0.0 0.0 0.00 0.00 0.00 77 1007.8
20260505014018 17 134 0.0 0.0 0.00 0.00 0.00 76 1007.8
20260505013514 17 134 0.0 0.0 0.00 0.00 0.00 75 1007.8
20260505013012 17 134 0.0 0.0 0.00 0.00 0.00 75 1007.8
20260505012510 17 134 0.0 0.0 0.00 0.00 0.00 74 1007.5
20260505012006 17 134 0.0 0.0 0.00 0.00 0.00 73 1007.8
20260505011502 18 135 0.0 0.0 0.00 0.00 0.00 73 1007.7
20260505010959 18 135 0.0 0.0 0.00 0.00 0.00 72 1007.6
20260505010455 18 135 0.0 0.0 0.00 0.00 0.00 72 1007.4
20260505005951 18 135 0.0 0.0 0.00 0.00 0.00 71 1007.8
20260505005448 18 135 0.0 0.0 0.00 0.00 0.00 70 1007.6
20260505004946 19 135 0.0 0.0 0.00 0.00 0.00 69 1007.7
20260505004442 19 134 0.0 1.6 0.00 0.00 0.00 69 1007.7
20260505003939 20 135 0.0 0.0 0.00 0.00 0.00 68 1007.4
20260505003436 20 135 0.0 1.6 0.00 0.00 0.00 68 1007.6
20260505002932 19 139 0.0 0.0 0.00 0.00 0.00 68 1007.7
20260505002429 20 139 1.6 1.6 0.00 0.00 0.00 67 1007.7
20260505001927 20 137 0.0 0.0 0.00 0.00 0.00 67 1007.8
20260505001425 20 137 0.0 0.0 0.00 0.00 0.00 66 1008.0
20260505000921 20 137 0.0 1.6 0.00 0.00 0.00 66 1007.8
20260505000420 20 137 0.0 0.0 0.00 0.00 0.00 65 1007.7
20260504235916 21 137 0.0 0.0 0.00 0.00 0.00 64 1007.8
20260504235413 21 137 0.0 0.0 0.00 0.00 0.00 63 1008.1
20260504234909 21 137 0.0 0.0 0.00 0.00 0.00 63 1008.1
20260504234407 22 140 1.6 3.2 0.00 0.00 0.00 62 1008.3
20260504233903 22 137 0.0 0.0 0.00 0.00 0.00 60 1007.9
20260504233359 23 152 0.0 1.6 0.00 0.00 0.00 59 1007.9
20260504232856 23 160 4.8 4.8 0.00 0.00 0.00 58 1008.1
20260504232353 23 156 0.0 1.6 0.00 0.00 0.00 57 1008.0
20260504231850 23 158 1.6 3.2 0.00 0.00 0.00 57 1008.0
20260504231346 23 147 1.6 3.2 0.00 0.00 0.00 58 1008.0
20260504230843 23 180 1.6 3.2 0.00 0.00 0.00 57 1008.3
20260504230340 23 207 1.6 3.2 0.00 0.00 0.00 58 1008.2
20260504225839 23 211 6.4 11.3 0.00 0.00 0.00 57 1008.5
20260504225335 23 223 4.8 4.8 0.00 0.00 0.00 57 1008.6
20260504224833 23 227 8.0 9.7 0.00 0.00 0.00 57 1008.4
20260504224329 23 253 4.8 8.0 0.00 0.00 0.00 58 1008.7
20260504223826 23 155 1.6 1.6 0.00 0.00 0.00 59 1008.7
20260504223321 23 79 4.8 4.8 0.00 0.00 0.00 58 1008.5
20260504222818 23 216 6.4 8.0 0.00 0.00 0.00 58 1008.7
20260504222315 23 199 3.2 3.2 0.00 0.00 0.00 60 1008.6
20260504221814 22 156 3.2 4.8 0.00 0.00 0.00 60 1008.6
20260504221310 22 179 3.2 4.8 0.00 0.00 0.00 61 1008.8
20260504220807 22 218 4.8 9.7 0.00 0.00 0.00 61 1009.1
20260504220304 22 159 4.8 8.0 0.00 0.00 0.00 59 1009.0
20260504215802 22 157 4.8 4.8 0.00 0.00 0.00 59 1008.7
20260504215258 22 169 4.8 4.8 0.00 0.00 0.00 59 1008.8
20260504214754 22 237 4.8 8.0 0.00 0.00 0.00 60 1008.9
20260504214250 22 176 4.8 4.8 0.00 0.00 0.00 59 1009.2
20260504213747 22 131 4.8 8.0 0.00 0.00 0.00 60 1008.6
20260504213243 22 195 8.0 9.7 0.00 0.00 0.00 58 1008.6
20260504212741 23 224 8.0 12.9 0.00 0.00 0.00 58 1008.9
20260504212237 23 202 3.2 3.2 0.00 0.00 0.00 59 1008.9
20260504211735 23 229 9.7 12.9 0.00 0.00 0.00 58 1008.8
20260504211230 22 146 1.6 3.2 0.00 0.00 0.00 60 1008.6
20260504210729 22 170 4.8 4.8 0.00 0.00 0.00 59 1008.7
20260504210225 23 231 4.8 8.0 0.00 0.00 0.00 59 1008.9
20260504205722 23 208 4.8 8.0 0.00 0.00 0.00 59 1008.7
20260504205220 23 176 3.2 4.8 0.00 0.00 0.00 59 1009.0
20260504204718 22 150 4.8 4.8 0.00 0.00 0.00 59 1008.9
20260504204216 22 147 1.6 3.2 0.00 0.00 0.00 60 1008.8
20260504203715 22 166 6.4 9.7 0.00 0.00 0.00 58 1008.9
20260504203213 23 177 9.7 12.9 0.00 0.00 0.00 56 1009.1
20260504202712 25 66 14.5 16.1 0.00 0.00 0.00 55 1008.8
20260504202209 24 204 6.4 8.0 0.00 0.00 0.00 56 1008.5
20260504201706 24 235 6.4 11.3 0.00 0.00 0.00 54 1008.5
20260504201204 22 181 6.4 9.7 0.00 0.00 0.00 59 1008.4
20260504200701 23 201 9.7 12.9 0.00 0.00 0.00 57 1008.4
20260504200157 23 114 4.8 8.0 0.00 0.00 0.00 59 1008.5
20260504195654 23 189 6.4 9.7 0.00 0.00 0.00 61 1008.9
20260504195150 23 217 8.0 9.7 0.00 0.00 0.00 59 1008.8
20260504194647 22 203 6.4 8.0 0.00 0.00 0.00 59 1008.9
20260504194143 22 223 3.2 4.8 0.00 0.00 0.00 60 1009.2
20260504193639 22 242 8.0 17.7 0.00 0.00 0.00 58 1009.0
20260504193137 22 211 6.4 9.7 0.00 0.00 0.00 59 1009.2
20260504192635 22 148 3.2 3.2 0.00 0.00 0.00 59 1009.0
20260504192133 23 234 6.4 9.7 0.00 0.00 0.00 58 1009.1
20260504191631 23 277 4.8 8.0 0.00 0.00 0.00 55 1009.4
20260504191127 24 151 6.4 11.3 0.00 0.00 0.00 57 1009.4
20260504190623 23 185 8.0 14.5 0.00 0.00 0.00 56 1009.3
20260504190120 24 232 14.5 17.7 0.00 0.00 0.00 56 1009.3
20260504185616 23 155 9.7 16.1 0.00 0.00 0.00 57 1009.3
20260504185113 23 213 8.0 12.9 0.00 0.00 0.00 59 1009.6
20260504184609 23 200 11.3 14.5 0.00 0.00 0.00 58 1009.5
20260504184104 22 154 4.8 8.0 0.00 0.00 0.00 60 1009.5
20260504183602 23 153 8.0 12.9 0.00 0.00 0.00 58 1009.6
20260504183059 23 115 6.4 11.3 0.00 0.00 0.00 59 1009.7
20260504182556 23 193 4.8 8.0 0.00 0.00 0.00 60 1009.6
20260504182054 23 263 11.3 14.5 0.00 0.00 0.00 58 1009.4
20260504181550 23 199 8.0 9.7 0.00 0.00 0.00 58 1009.7
20260504181048 23 206 6.4 11.3 0.00 0.00 0.00 60 1009.7
20260504180547 23 232 12.9 16.1 0.00 0.00 0.00 60 1009.5
20260504180046 22 210 1.6 3.2 0.00 0.00 0.00 59 1009.6
20260504175543 23 238 12.9 17.7 0.00 0.00 0.00 59 1010.1
20260504175039 22 307 14.5 16.1 0.00 0.00 0.00 60 1009.7
20260504174537 22 231 12.9 16.1 0.00 0.00 0.00 60 1009.7
20260504174034 23 285 9.7 16.1 0.00 0.00 0.00 58 1009.8
20260504173531 22 159 4.8 9.7 0.00 0.00 0.00 61 1010.0
20260504173028 22 162 1.6 3.2 0.00 0.00 0.00 61 1009.8
20260504172524 22 268 8.0 11.3 0.00 0.00 0.00 59 1010.1
20260504172021 22 145 3.2 4.8 0.00 0.00 0.00 57 1009.9
20260504171518 22 159 4.8 4.8 0.00 0.00 0.00 62 1010.0
20260504171015 22 163 12.9 16.1 0.00 0.00 0.00 60 1010.2
20260504170511 22 138 3.2 3.2 0.00 0.00 0.00 61 1010.1
20260504160431 21 144 11.3 14.5 0.00 0.00 0.00 62 1011.4
20260504150854 17 154 9.7 16.1 0.00 0.00 0.00 66 1012.2
20260504150351 17 235 3.2 8.0 0.00 0.00 0.00 66 1012.3
20260504141321 17 239 6.4 9.7 0.00 0.00 0.00 62 1012.2
20260504140818 17 239 6.4 8.0 0.00 0.00 0.00 64 1012.6
20260504140313 17 194 8.0 11.3 0.00 0.00 0.00 62 1012.2
20260504130742 16 213 8.0 11.3 0.00 0.00 0.00 61 1012.2
20260504130238 16 154 3.2 3.2 0.00 0.00 0.00 62 1012.1
20260504120202 13 118 0.0 0.0 0.00 0.00 0.00 68 1012.3
20260504110629 7 120 0.0 1.6 0.00 0.00 0.00 87 1012.1
20260504110125 7 121 0.0 0.0 0.00 0.00 0.00 88 1012.3
20260504100551 7 121 0.0 0.0 0.00 0.00 0.00 86 1012.6